Home   Weather   Lippstadt   Past weeks

Flag for Germany Past Weather in Lippstadt, North Rhine-Westphalia, Germany — Yesterday and Last 2 Weeks

Now
48 °F

Clear.


Feels Like: 44 °F
Forecast: 42 / 49 °F
Wind: 10 mph from Southwest

Location: Paderborn / Lippstadt

Current Time: Dec 8, 2016 at 5:32:46 pm

Latest Report: Dec 8, 2016 at 4:50 pm


Visibility: 10 mi

Pressure: 30.33 "Hg

Humidity: 43%

Dew Point: 27 °F

Location of LippstadtLocation

Past Weather in Lippstadt — Graph

°F

Lippstadt Temperature Yesterday

Maximum temperature yesterday: 50 °F (at 8:20 pm)
Minimum temperature yesterday: 28 °F (at 12:20 am)
Average temperature yesterday: 42 °F

High & Low Weather Summary for the Past Weeks

 TemperatureHumidityPressure
High57 °F (Nov 23, 3:20 pm)100% (Nov 27, 9:50 am)30.57 "Hg (Nov 27, 9:50 am)
Low18 °F (Nov 29, 6:50 am)28% (Nov 30, 11:50 am)30.04 "Hg (Nov 27, 12:50 am)
Average35 °F77%30.28 "Hg
* Reported Nov 23 3:20 pm — Dec 8 3:50 pm, Lippstadt, Weather by CustomWeather, © 2016

Note: Actual official high and low records may vary slightly from our data, if they occured in-between our weather recording intervals... More about our weather records

Advertising

Lippstadt Weather History for the Previous 24 Hours

Scroll right to see more
 ConditionsComfort  
Time TempWeatherWind HumidityBarometerVisibility
3:50 pm
Thu, Dec 8
50 °FSunny.9 mph37%30.30 "Hg10 mi
3:20 pm50 °FSunny.8 mph37%30.33 "Hg10 mi
2:50 pm50 °FSunny.7 mph43%30.33 "Hg10 mi
2:20 pm52 °FSunny.6 mph38%30.33 "Hg10 mi
1:50 pm52 °FSunny.8 mph38%30.33 "Hg10 mi
1:20 pm54 °FSunny.8 mph35%30.33 "Hg10 mi
12:50 pm52 °FSunny.6 mph41%30.33 "Hg10 mi
12:20 pm54 °FSunny.9 mph38%30.36 "Hg10 mi
11:50 am54 °FSunny.10 mph38%30.36 "Hg10 mi
11:20 am52 °FSunny.10 mph41%30.36 "Hg10 mi
10:50 am50 °FSunny.9 mph43%30.36 "Hg10 mi
10:20 am50 °FSunny.10 mph47%30.39 "Hg10 mi
9:50 am48 °FSunny.13 mph50%30.39 "Hg10 mi
9:20 am48 °FSunny.13 mph50%30.39 "Hg10 mi
8:50 am48 °FSunny.13 mph50%30.39 "Hg10 mi
8:20 am48 °FSunny.15 mph54%30.39 "Hg10 mi
7:50 am48 °FClear.14 mph54%30.39 "Hg10 mi
7:20 am48 °FClear.13 mph54%30.39 "Hg10 mi
6:50 am48 °FClear.14 mph54%30.39 "Hg10 mi
6:20 am48 °FClear.14 mph54%30.39 "Hg10 mi
5:50 am46 °FClear.12 mph57%30.39 "Hg10 mi
5:20 am46 °FClear.13 mph57%30.39 "Hg10 mi
4:50 am48 °FClear.15 mph54%30.36 "Hg10 mi
4:20 am48 °FClear.15 mph54%30.39 "Hg10 mi
3:50 am46 °FClear.13 mph57%30.39 "Hg10 mi
3:20 am46 °FClear.14 mph57%30.39 "Hg10 mi
2:50 am48 °FClear.15 mph54%30.39 "Hg10 mi
2:20 am46 °FClear.14 mph62%30.39 "Hg10 mi
1:50 am46 °FClear.16 mph62%30.39 "Hg10 mi
1:20 am48 °FClear.17 mph58%30.39 "Hg10 mi
12:50 am46 °FClear.15 mph62%30.42 "Hg10 mi
12:20 am46 °FClear.13 mph62%30.42 "Hg10 mi
11:50 pm
Wed, Dec 7
48 °FClear.14 mph58%30.42 "Hg10 mi
11:20 pm48 °FClear.13 mph58%30.42 "Hg10 mi
10:50 pm48 °FClear.14 mph58%30.42 "Hg10 mi
10:20 pm48 °FClear.12 mph58%30.42 "Hg10 mi
9:50 pm50 °FClear.14 mph58%30.42 "Hg10 mi
9:20 pm50 °FClear.15 mph58%30.42 "Hg10 mi
8:50 pm50 °FClear.14 mph58%30.42 "Hg10 mi
8:20 pm50 °FClear.13 mph58%30.42 "Hg10 mi
7:50 pm48 °FClear.13 mph62%30.42 "Hg10 mi
7:20 pm48 °FClear.13 mph62%30.42 "Hg10 mi
6:50 pm48 °FClear.10 mph62%30.42 "Hg10 mi
6:20 pm48 °FClear.10 mph62%30.42 "Hg10 mi
5:50 pm48 °FClear.12 mph62%30.42 "Hg10 mi
5:20 pm48 °FClear.10 mph62%30.42 "Hg10 mi
Weather by CustomWeather, © 2016

See weather overviewHow to use our weather pages